Westfield, MA

10:50 AM EDT on September 25, 2016 (GMT -0400)
Barnes Municipal

Weather History for KBAF - April, 2013

Change the Weather History Date:

Tuesday, April 2, 2013

  Actual Average Record
Temperature  
Mean Temperature 34 °F -  
Max Temperature 42 °F 49 °F 66 °F (2015)
Min Temperature 28 °F 30 °F 23 °F (2015)
Degree Days  
Heating Degree Days 32    
Moisture  
Dew Point 13 °F    
Average Humidity 44    
Maximum Humidity 61    
Minimum Humidity 27    
Precipitation  
Precipitation 0.00 in - - ()
Sea Level Pressure  
Sea Level Pressure 29.93 in    
Wind  
Wind Speed 11 mph (WNW)    
Max Wind Speed 23 mph    
Max Gust Speed 34 mph    
Visibility 10 miles    
Events      
Averages and records for this station are not official NWS values.
T = Trace of Precipitation, MM = Missing Value Source: NWS Daily Summary

Daily Weather History Graph

Daily Weather History Graph

Search for Another Location

Airport or City:

Trip Planner

Search our weather history database for the weather conditions in past years. The results will help you decide how hot, cold, wet, or windy it might be!

Date:

Astronomy

Apr. 02, 2013 Rise Set
Actual Time 6:31 AM EDT 7:17 PM EDT
Civil Twilight 6:03 AM EDT 7:46 PM EDT
Nautical Twilight 5:29 AM EDT 8:19 PM EDT
Astronomical Twilight 4:54 AM EDT 8:54 PM EDT
Moon 1:24 AM EDT (4/2) 11:14 AM EDT (4/2)
Length of Visible Light 13h 43m
Length of Day
12h 46m
Waning Gibbous, 56% of the Moon is Illuminated
Apr 2
Waning Gibbous
Apr 3
Last Quarter
Apr 10
New
Apr 18
First Quarter
Apr 25
Full

Hourly Weather History & Observations

Time (EDT) Temp. Windchill Dew Point Humidity Pressure Visibility Wind Dir Wind Speed Gust Speed Precip Events Conditions
12:53 AM 32.0 °F 23.6 °F 12.0 °F 44% 29.87 in 10.0 mi NW 10.4 mph 21.9 mph N/A   Clear
1:53 AM 30.9 °F 23.5 °F 12.9 °F 47% 29.88 in 10.0 mi NW 8.1 mph - N/A   Clear
3:53 AM 28.9 °F 25.2 °F 14.0 °F 54% 29.88 in 10.0 mi SW 3.5 mph - N/A   Clear
4:53 AM 28.9 °F 22.8 °F 15.1 °F 56% 29.88 in 10.0 mi WSW 5.8 mph - N/A   Clear
5:53 AM 28.9 °F 21.1 °F 15.1 °F 56% 29.89 in 10.0 mi West 8.1 mph - N/A   Clear
6:53 AM 28.0 °F 21.7 °F 16.0 °F 61% 29.91 in 10.0 mi WNW 5.8 mph - N/A   Clear
7:53 AM 30.9 °F 20.7 °F 17.1 °F 57% 29.93 in 10.0 mi WNW 13.8 mph 21.9 mph 0.00 in   Scattered Clouds
8:53 AM 32.0 °F 22.1 °F 17.1 °F 54% 29.94 in 10.0 mi WNW 13.8 mph 17.3 mph N/A   Mostly Cloudy
9:53 AM 34.0 °F 21.8 °F 12.9 °F 42% 29.94 in 10.0 mi West 23.0 mph 33.4 mph N/A   Mostly Cloudy
10:53 AM 35.1 °F 25.5 °F 12.0 °F 39% 29.94 in 10.0 mi WNW 15.0 mph 28.8 mph N/A   Mostly Cloudy
11:53 AM 37.9 °F 29.2 °F 10.9 °F 33% 29.92 in 10.0 mi West 15.0 mph 26.5 mph N/A   Overcast
12:53 PM 37.0 °F 28.1 °F 10.9 °F 34% 29.91 in 10.0 mi West 15.0 mph 27.6 mph N/A   Mostly Cloudy
1:53 PM 39.9 °F 30.0 °F 8.1 °F 27% 29.90 in 10.0 mi West 21.9 mph 34.5 mph N/A   Mostly Cloudy
2:53 PM 39.9 °F 30.0 °F 9.0 °F 28% 29.90 in 10.0 mi West 21.9 mph 33.4 mph N/A   Mostly Cloudy
3:53 PM 39.9 °F 31.4 °F 10.9 °F 31% 29.90 in 10.0 mi West 16.1 mph 24.2 mph N/A   Mostly Cloudy
4:53 PM 37.0 °F 27.4 °F 12.9 °F 37% 29.91 in 10.0 mi NW 17.3 mph 28.8 mph N/A   Mostly Cloudy
5:53 PM 36.0 °F 26.3 °F 10.9 °F 36% 29.92 in 10.0 mi WNW 16.1 mph 27.6 mph N/A   Partly Cloudy
6:53 PM 35.1 °F 27.9 °F 12.9 °F 40% 29.94 in 10.0 mi West 9.2 mph 18.4 mph N/A   Clear
7:53 PM 34.0 °F 25.5 °F 12.0 °F 40% 29.96 in 10.0 mi WNW 11.5 mph 19.6 mph N/A   Clear
8:53 PM 33.1 °F 25.5 °F 14.0 °F 46% 30.01 in 10.0 mi WNW 9.2 mph - N/A   Clear
9:53 PM 30.9 °F - 15.1 °F 52% 30.01 in 10.0 mi Calm Calm - N/A   Partly Cloudy
10:53 PM 32.0 °F 28.7 °F 15.1 °F 50% 30.00 in 10.0 mi WNW 3.5 mph - N/A   Partly Cloudy
11:53 PM 33.1 °F 24.4 °F 15.1 °F 48% 30.01 in 10.0 mi West 11.5 mph 21.9 mph N/A   Mostly Cloudy